Regional Weather Roundup
Issued by NWS

Home | Current Version | Previous Version | Graphics & Text | Print | Product List | Glossary On
Versions: 1 2 3 4 5 6 7 8 9 10 11 12 13 14 15 16 17 18 19 20 21 22 23 24 25 26 27 28 29 30 31 32 33 34 35 36 37 38 39 40 41 42 43 44 45 46 47 48 49 50
000
ASUS45 KTFX 281004
RWRMT
MONTANA HOURLY WEATHER ROUNDUP
NATIONAL WEATHER SERVICE GREAT FALLS MT
304 AM MST WED JAN 28 2015

NOTE: "FAIR" INDICATES FEW OR NO CLOUDS BELOW 12000 FEET WITH NO
SIGNIFICANT WEATHER AND/OR OBSTRUCTIONS TO VISIBILITY.

* THESE STATIONS ARE NOT UNDER NWS QUALITY CONTROL. THEY DO NOT
   REPORT WEATHER SUCH AS PRECIPITATION OR FOG.

MTZ001>007-043-281100-
WEST OF THE DIVIDE
CITY           SKY/WX    TMP DP  RH WIND       PRES   REMARKS
KALISPELL      FOG       12  10  92 CALM      30.09R VSB 3
MISSOULA       FOG       27  27 100 CALM      30.13R
BUTTE          CLOUDY    30  28  92 E3        30.07S
MULLAN PASS    CLOUDY    28  28 100 VRB3      30.10R
* ANACONDA     CLOUDY    39  28  65 S6         N/A   WCI  35
* ESSEX        N/A       27  24  88 SW1        N/A
* LINCOLN      N/A       38  25  60 S4G10      N/A
* LOOKOUT PASS N/A       32  30  92 N9         N/A   WCI  24
* POLSON       N/A       37  26  64 SE1        N/A
* RONAN APT    MOCLDY    39  39 100 N/A        N/A
* SEELEY LAKE  N/A       20  18  92 NE2        N/A
* THOMP F APT  PTCLDY    32  31  96 N/A        N/A
$$

MTZ008-052>055-281100-
SOUTHWEST MONTANA
CITY           SKY/WX    TMP DP  RH WIND       PRES   REMARKS
BOZEMAN        CLOUDY    36  30  79 W3        30.05R
DILLON         CLOUDY    39  34  82 SW15      30.06R WCI  31
* W YELLOWSTON CLOUDY    32  31  96 SW1        N/A
* THREE FORKS  CLOUDY    45  45 100 N/A        N/A
* BOULDER HILL N/A       40  21  47 S7G12      N/A   WCI  35
* MONIDA PASS  N/A       31  31 100 SE6        N/A   WCI  25
* RAYNOLDS PAS N/A       31  14  49 SE15       N/A   WCI  20
* WHITEHALL    N/A       45  33  63 SW9G16     N/A
* WISE RIVER   N/A       30  25  82 NW1        N/A
$$

MTZ009>010-012-014-046-048-049-054-281100-
EAST SLOPES AND CENTRAL MONTANA
CITY           SKY/WX    TMP DP  RH WIND       PRES   REMARKS
CUT BANK       PTCLDY    36  25  64 W17       29.94R WCI  26
GREAT FALLS    CLOUDY    46  28  50 W14       29.94R
HELENA         CLOUDY    34  30  85 CALM      30.03R
MALMSTROM AFB  CLOUDY    50  28  43 W13       29.94R
* DEARBORN     N/A       53  24  32 SE13G20    N/A
* EAST GLACIER N/A       39  23  53 W15        N/A   WCI  31
* MONARCH      N/A       46  19  34 W16        N/A
* PENDROY      N/A       41  22  47 NW12G17    N/A
* ROGERS PASS  N/A       39  22  51 E11G27     N/A   WCI  32
* SWEET GRASS  N/A       38  24  57 W20        N/A   WCI  28
$$

MTZ011-013-016-021-035-040-045-047-050-051-281100-
NORTH CENTRAL MONTANA
CITY           SKY/WX    TMP DP  RH WIND       PRES   REMARKS
HAVRE          MOCLDY    39  28  65 SW8       29.87R WCI  33
LEWISTOWN      CLOUDY    39  28  65 W5        29.92R WCI  35
* N BAR RANCH  CLOUDY    52  25  35 NW16G25   29.88R
* CHESTER      N/A       40  28  62 NW9G14     N/A   WCI  34
* DENTON       N/A       48  28  46 W15G20     N/A
* GEYSER       N/A       49  24  38 W21G26     N/A
* JUDITH GAP   N/A       45  26  47 SE4        N/A
* LOMA         N/A       45  29  54 SW8        N/A
$$

MTZ017>020-022>027-061-062-281100-
NORTHEAST MONTANA
CITY           SKY/WX    TMP DP  RH WIND       PRES   REMARKS
GLASGOW        MOCLDY    34  30  85 W7        29.77R WCI  28
GLENDIVE       CLOUDY    34  30  85 SW3       29.78R
JORDAN         CLOUDY    37  30  76 W9        29.81R WCI  30
SIDNEY         CLOUDY    34  30  85 CALM      29.77S
WOLF POINT     CLOUDY    36  32  85 SW6       29.75F WCI  31
* BEAVER HILL  N/A       41  32  70 SW4        N/A
* CIRCLE       N/A       41  34  76 W1         N/A
* LINDSAY DVD  N/A       45  29  54 NW12G18    N/A
* NAVAJO       N/A       38  31  76 W5         N/A   WCI  34
* SACO         N/A       40  32  73 W11        N/A   WCI  33
$$

MTZ028>042-056>058-281100-
SOUTHCENTRAL AND SOUTHEAST MONTANA
CITY           SKY/WX    TMP DP  RH WIND       PRES   REMARKS
BAKER          CLOUDY    34  28  79 NW3       29.78S
BILLINGS       CLOUDY    48  30  50 SW17      29.90S
LIVINGSTON     CLOUDY    46  36  68 SW28G37   29.99R
MILES CITY     CLOUDY    39  32  76 CALM      29.81R
* LAUREL APT   CLOUDY    45  27  49 N/A        N/A
* ROUNDUP APT  CLOUDY    46  28  50 S6         N/A
* ALZADA       N/A       39  30  70 W7         N/A   WCI  34
* HYSHAM       N/A       45  26  47 W8         N/A
* REED POINT   N/A       54  30  40 W12G17     N/A
* ROSCOE HILL  N/A       48  21  34 SW8G16     N/A
$$

REGIONAL REPORTS...DAKOTAS
CITY           SKY/WX    TMP DP  RH WIND       PRES   REMARKS
WILLISTON      MOCLDY    30  28  92 CALM      29.73F
DICKINSON      PTCLDY    36  30  79 W8        29.71F WCI  30
CROSBY         FOG       30  30 100 E6        29.74S WCI  24
WATFORD CITY   CLEAR     32  32 100 SW6       29.71F WCI  26
BISMARCK       CLEAR     28  27  96 N3        29.74F
GRAND FORKS    FOG       34  32  92 S12       29.82F WCI  25
FARGO          CLOUDY    36  30  79 S18G28    29.83F WCI  26
BUFFALO SD     CLOUDY    43  30  60 W10       29.71R
RAPID CITY     MOCLDY    43  27  53 N8        29.77S
$$

REGIONAL REPORTS...WYOMING/IDAHO/WASHINGTON
CITY           SKY/WX    TMP DP  RH WIND       PRES   REMARKS
GILLETTE       PTCLDY    43  28  56 SW6       29.88S
SHERIDAN       CLOUDY    52  32  47 W18       29.89R
CODY           CLOUDY    48  30  50 W10G17    29.97S
YELLOWSTONE LA CLOUDY    30  28  92 CALM      30.12S
SALMON         CLOUDY   N/A N/A N/A CALM      30.17R
MULLAN PASS    CLOUDY    28  28 100 VRB3      30.10S
SAND POINT     FOG      N/A N/A N/A CALM      30.19R VSB 3/4
SPOKANE        FOG       34  32  92 SE3       30.19R VSB 1/2
$$

REGIONAL REPORTS...ALBERTA
CITY           SKY/WX    TMP DP  RH WIND       PRES   REMARKS
LETHBRIDGE     FOG       30  28  92 NE9       29.98R WCI  22

$$



USA.gov is the U.S. government's official web portal to all federal, state and local government web resources and services.